• In Hungary
  • List of Countries
  • For 7 days
  • Water Temperature
  • Satellite Maps
  • Weather Map
  • News
  • Weather Widgets
  • user-avatar
    Login

    Hourly Weather Ornowo

    Today, 16 July, Monday

    Time Temperature Precipitation Wind Pressure Humidity
    00:00 +16°C° 0 mm 3 mps 747 mmHg 93%
    01:00 +16°C° 0 mm 3 mps 747 mmHg 94%
    02:00 +16°C° 0 mm 3 mps 746 mmHg 95%
    03:00 +16°C° 0 mm 3 mps 746 mmHg 95%
    04:00 +16°C° 0 mm 3 mps 746 mmHg 95%
    05:00 +17°C° 0.4 mm 3 mps 746 mmHg 93%
    06:00 +18°C° 0.4 mm 4 mps 746 mmHg 90%
    07:00 +19°C° 0.4 mm 4 mps 746 mmHg 88%
    08:00 +21°C° 0.7 mm 4 mps 746 mmHg 84%
    09:00 +22°C° 0.7 mm 4 mps 746 mmHg 81%
    10:00 +23°C° 0.7 mm 5 mps 746 mmHg 77%
    11:00 +23°C° 0.9 mm 5 mps 745 mmHg 77%
    12:00 +23°C° 0.9 mm 4 mps 745 mmHg 77%
    13:00 +25°C° 0.9 mm 4 mps 745 mmHg 77%
    14:00 +23°C° 0.9 mm 4 mps 745 mmHg 80%
    15:00 +23°C° 0.9 mm 4 mps 744 mmHg 83%
    16:00 +22°C° 0.9 mm 4 mps 744 mmHg 86%
    17:00 +21°C° 1.3 mm 3 mps 744 mmHg 88%
    18:00 +21°C° 1.3 mm 3 mps 744 mmHg 90%
    19:00 +20°C° 1.3 mm 3 mps 744 mmHg 92%
    20:00 +20°C° 1.7 mm 3 mps 744 mmHg 93%
    21:00 +19°C° 1.7 mm 3 mps 743 mmHg 94%
    22:00 +19°C° 1.7 mm 3 mps 743 mmHg 95%
    23:00 +19°C° 1 mm 3 mps 743 mmHg 95%

    Tomorrow, 17 July, Tuesday

    Time Temperature Precipitation Wind Pressure Humidity
    00:00 +19°C° 1 mm 4 mps 743 mmHg 96%
    01:00 +19°C° 1 mm 4 mps 743 mmHg 96%
    02:00 +19°C° 0.4 mm 4 mps 742 mmHg 96%
    03:00 +18°C° 0.4 mm 4 mps 742 mmHg 97%
    04:00 +18°C° 0.4 mm 4 mps 742 mmHg 97%
    05:00 +19°C° 0.2 mm 4 mps 742 mmHg 96%
    06:00 +19°C° 0.2 mm 4 mps 742 mmHg 95%
    07:00 +20°C° 0.2 mm 4 mps 742 mmHg 94%
    08:00 +21°C° 0.2 mm 4 mps 742 mmHg 91%
    09:00 +22°C° 0.2 mm 4 mps 742 mmHg 88%
    10:00 +22°C° 0.2 mm 4 mps 742 mmHg 86%
    11:00 +24°C° 0.7 mm 3 mps 742 mmHg 84%
    12:00 +24°C° 0.7 mm 3 mps 742 mmHg 83%
    13:00 +24°C° 0.7 mm 3 mps 742 mmHg 82%
    14:00 +25°C° 0.6 mm 3 mps 742 mmHg 82%
    15:00 +25°C° 0.6 mm 3 mps 742 mmHg 83%
    16:00 +25°C° 0.6 mm 3 mps 742 mmHg 83%
    17:00 +24°C° 0.8 mm 3 mps 742 mmHg 86%
    18:00 +24°C° 0.8 mm 2 mps 742 mmHg 89%
    19:00 +23°C° 0.8 mm 2 mps 742 mmHg 92%
    20:00 +21°C° 1 mm 2 mps 742 mmHg 93%
    21:00 +21°C° 1 mm 2 mps 742 mmHg 94%
    22:00 +20°C° 1 mm 2 mps 742 mmHg 95%
    23:00 +20°C° 0.3 mm 2 mps 742 mmHg 95%

    Day after tomorrow, 18 July, Wednesday

    Time Temperature Precipitation Wind Pressure Humidity
    00:00 +19°C° 0.3 mm 2 mps 742 mmHg 96%
    01:00 +19°C° 0.3 mm 2 mps 742 mmHg 96%
    02:00 +19°C° 0 mm 2 mps 742 mmHg 96%
    03:00 +19°C° 0 mm 2 mps 742 mmHg 96%
    04:00 +19°C° 0 mm 2 mps 742 mmHg 96%
    05:00 +20°C° 0.1 mm 2 mps 742 mmHg 94%
    06:00 +21°C° 0.1 mm 2 mps 742 mmHg 92%
    07:00 +23°C° 0.1 mm 2 mps 742 mmHg 89%
    08:00 +24°C° 1.1 mm 3 mps 742 mmHg 86%
    09:00 +25°C° 1.1 mm 3 mps 742 mmHg 82%
    10:00 +26°C° 1.1 mm 3 mps 742 mmHg 78%
    11:00 +27°C° 1 mm 3 mps 742 mmHg 77%
    12:00 +27°C° 1 mm 3 mps 743 mmHg 76%
    13:00 +27°C° 1 mm 3 mps 743 mmHg 74%
    14:00 +27°C° 0.7 mm 4 mps 743 mmHg 77%
    15:00 +26°C° 0.7 mm 5 mps 743 mmHg 79%
    16:00 +26°C° 0.7 mm 5 mps 743 mmHg 81%
    17:00 +23°C° 0.1 mm 5 mps 743 mmHg 84%
    18:00 +22°C° 0.1 mm 5 mps 744 mmHg 87%
    19:00 +21°C° 0.1 mm 5 mps 744 mmHg 90%
    20:00 +20°C° 0.1 mm 5 mps 744 mmHg 92%
    21:00 +19°C° 0.1 mm 5 mps 744 mmHg 93%
    22:00 +19°C° 0.1 mm 4 mps 745 mmHg 94%
    23:00 +18°C° 0 mm 4 mps 745 mmHg 94%

    19 July, Thursday

    Time Temperature Precipitation Wind Pressure Humidity
    00:00 +18°C° 0 mm 4 mps 745 mmHg 94%
    01:00 +18°C° 0 mm 4 mps 745 mmHg 94%
    02:00 +18°C° 0 mm 4 mps 745 mmHg 95%
    03:00 +18°C° 0 mm 4 mps 745 mmHg 95%
    04:00 +18°C° 0 mm 4 mps 745 mmHg 95%
    05:00 +18°C° 0 mm 4 mps 745 mmHg 93%
    06:00 +19°C° 0 mm 4 mps 745 mmHg 91%
    07:00 +19°C° 0 mm 5 mps 745 mmHg 90%
    08:00 +20°C° 0 mm 5 mps 746 mmHg 87%
    09:00 +20°C° 0 mm 5 mps 746 mmHg 85%
    10:00 +21°C° 0 mm 5 mps 746 mmHg 83%
    11:00 +21°C° 0 mm 5 mps 746 mmHg 81%
    12:00 +22°C° 0 mm 5 mps 746 mmHg 78%
    13:00 +23°C° 0 mm 5 mps 746 mmHg 76%
    14:00 +23°C° 0 mm 6 mps 746 mmHg 76%
    15:00 +23°C° 0 mm 6 mps 746 mmHg 75%
    16:00 +23°C° 0 mm 6 mps 746 mmHg 74%
    17:00 +22°C° 0 mm 5 mps 746 mmHg 77%
    18:00 +21°C° 0 mm 4 mps 747 mmHg 81%
    19:00 +20°C° 0 mm 4 mps 747 mmHg 84%
    20:00 +19°C° 0 mm 3 mps 747 mmHg 87%
    21:00 +18°C° 0 mm 3 mps 747 mmHg 91%
    22:00 +17°C° 0 mm 3 mps 747 mmHg 94%
    23:00 +16°C° 0 mm 3 mps 747 mmHg 94%

    20 July, Friday

    Time Temperature Precipitation Wind Pressure Humidity
    00:00 +16°C° 0 mm 3 mps 747 mmHg 94%
    01:00 +14°C° 0 mm 3 mps 747 mmHg 94%
    02:00 +14°C° 0 mm 3 mps 747 mmHg 94%
    03:00 +13°C° 0 mm 3 mps 747 mmHg 93%
    04:00 +13°C° 0 mm 3 mps 747 mmHg 93%
    05:00 +14°C° 0 mm 3 mps 747 mmHg 88%
    06:00 +17°C° 0 mm 3 mps 747 mmHg 83%
    07:00 +19°C° 0 mm 4 mps 747 mmHg 77%
    08:00 +20°C° 0 mm 4 mps 747 mmHg 72%
    09:00 +21°C° 0 mm 4 mps 747 mmHg 67%
    10:00 +23°C° 0 mm 4 mps 747 mmHg 62%
    11:00 +23°C° 0 mm 4 mps 747 mmHg 60%
    12:00 +25°C° 0 mm 4 mps 747 mmHg 57%
    13:00 +25°C° 0 mm 4 mps 747 mmHg 55%
    14:00 +25°C° 0 mm 4 mps 747 mmHg 56%
    15:00 +23°C° 0 mm 4 mps 747 mmHg 57%
    16:00 +23°C° 0 mm 4 mps 747 mmHg 58%
    17:00 +22°C° 0 mm 3 mps 747 mmHg 64%
    18:00 +20°C° 0 mm 3 mps 747 mmHg 71%
    19:00 +19°C° 0 mm 2 mps 747 mmHg 77%
    20:00 +17°C° 0 mm 2 mps 747 mmHg 80%
    21:00 +16°C° 0 mm 2 mps 747 mmHg 82%
    22:00 +14°C° 0 mm 1 mps 747 mmHg 85%
    23:00 +14°C° 0 mm 1 mps 747 mmHg 84%

    21 July, Saturday

    Time Temperature Precipitation Wind Pressure Humidity
    00:00 +14°C° 0 mm 1 mps 747 mmHg 83%
    01:00 +13°C° 0 mm 1 mps 747 mmHg 82%
    02:00 +13°C° 0 mm 1 mps 747 mmHg 82%
    03:00 +13°C° 0 mm 1 mps 747 mmHg 82%
    04:00 +12°C° 0 mm 1 mps 747 mmHg 82%
    05:00 +14°C° 0 mm 1 mps 747 mmHg 77%
    06:00 +16°C° 0 mm 1 mps 747 mmHg 72%
    07:00 +19°C° 0 mm 1 mps 747 mmHg 67%
    08:00 +21°C° 0 mm 1 mps 747 mmHg 62%
    09:00 +22°C° 0 mm 1 mps 747 mmHg 58%
    10:00 +24°C° 0 mm 1 mps 747 mmHg 53%
    11:00 +25°C° 0 mm 1 mps 746 mmHg 51%
    12:00 +25°C° 0 mm 1 mps 746 mmHg 49%
    13:00 +26°C° 0 mm 1 mps 746 mmHg 46%
    14:00 +26°C° 0 mm 1 mps 746 mmHg 48%
    15:00 +26°C° 0 mm 2 mps 745 mmHg 49%
    16:00 +26°C° 0 mm 2 mps 745 mmHg 50%
    17:00 +24°C° 0 mm 2 mps 745 mmHg 58%
    18:00 +23°C° 0 mm 2 mps 745 mmHg 66%
    19:00 +20°C° 0 mm 2 mps 745 mmHg 73%
    20:00 +19°C° 0 mm 2 mps 745 mmHg 77%
    21:00 +17°C° 0 mm 2 mps 745 mmHg 80%
    22:00 +16°C° 0 mm 2 mps 745 mmHg 84%
    23:00 +16°C° 0 mm 2 mps 745 mmHg 85%
    Show more